This demonstration page uses our WeatherBlox Daily Observations layout. Learn more.

Left ArrowRight Arrow

Hourly Observations for June 7, 2021

Temp ( °F °C ) Dew Point ( °F °C ) Humidity (%) Winds ( mph kmh ) Pressure ( in mb ) Visibility ( mi km ) Precip ( " mm )
12:53 am 00:53 Cloudy with Light Rain 51 10.6 45 7.2 80 80 W 3 6 29.75 1007 10 16 0.00 0.00
1:53 am 01:53 Cloudy 51 10.6 43 6.1 74 74 SSE 10 17 29.72 1007 10 16 0.00 0.00
2:53 am 02:53 Partly Cloudy 50 10 41 5 71 71 SSE 10 17 29.71 1006 10 16 N/A
3:53 am 03:53 Clear 45 7.2 41 5 86 86 NW 6 9 29.73 1007 10 16 N/A
4:53 am 04:53 Mostly Cloudy 41 5 40 4.4 96 96 W 7 11 29.75 1008 10 16 N/A
5:53 am 05:53 Mostly Sunny 44 6.7 42 5.6 93 93 SW 7 11 29.78 1009 10 16 N/A
6:53 am 06:53 Sunny 49 9.4 44 6.7 83 83 SSW 3 6 29.80 1009 10 16 N/A
7:53 am 07:53 Sunny 54 12.2 44 6.7 69 69 W 9 15 29.81 1010 10 16 N/A
8:53 am 08:53 Sunny 56 13.3 42 5.6 60 60 W 8 13 29.83 1010 10 16 N/A
9:53 am 09:53 Sunny 60 15.6 35 1.7 39 39 W 10 17 29.82 1010 10 16 N/A
10:53 am 10:53 Sunny 62 16.7 32 undefined 32 32 SW 15 24 29.80 1009 10 16 N/A
11:53 am 11:53 Sunny 65 18.3 33 0.6 31 31 SW 12 19 29.80 1009 10 16 N/A
12:53 pm 12:53 Sunny 67 19.4 29 -1.7 24 24 SW 17 28 29.80 1009 10 16 N/A
1:53 pm 13:53 Sunny 69 20.6 28 -2.2 22 22 W 16 26 29.80 1009 10 16 N/A
2:53 pm 14:53 Sunny 71 21.7 27 -2.8 19 19 W 17 28 29.80 1009 10 16 N/A
3:53 pm 15:53 Sunny 71 21.7 26 -3.3 19 19 WNW 13 20 29.81 1009 10 16 N/A
4:53 pm 16:53 Sunny 72 22.2 25 -3.9 17 17 NW 7 11 29.81 1009 10 16 N/A
5:53 pm 17:53 Sunny 72 22.2 24 -4.4 17 17 WNW 6 9 29.80 1009 10 16 N/A
6:53 pm 18:53 Sunny 72 22.2 21 -6.1 15 15 NW 8 13 29.81 1009 10 16 N/A
7:53 pm 19:53 Sunny 70 21.1 22 -5.6 16 16 NNW 6 9 29.80 1009 10 16 N/A
8:53 pm 20:53 Mostly Sunny 64 17.8 30 -1.1 28 28 NNE 7 11 29.83 1010 10 16 N/A
9:53 pm 21:53 Cloudy 63 17.2 28 -2.2 27 27 NNE 7 11 29.85 1011 10 16 N/A
10:53 pm 22:53 Clear 56 13.3 32 undefined 40 40 E 7 11 29.88 1012 10 16 N/A
11:53 pm 23:53 Clear 52 11.1 33 0.6 49 49 ESE 6 9 29.89 1012 10 16 N/A

Powered by AerisWeather